Temperature
26 25 25 25 28 28 30 32 33 32 32 32 31 31 29 28 26 24 24 23 21 21 21 20 20 20 20 19 19 19 19 19 19 19 19 19 19 18 18 18 18 18 18 18 18 18 18 18 18
26 25 26 28 28 28 30 32 32 32 32 32 31 30 29 27 26 25 24 22 21 21 21 20 20 20 19 19 19 19 19 19 19 19 19 19 18 18 18 18 18 18 18 18 18 18 18 18 18
26 26 28 30 29 30 31 32 33 33 32 32 31 29 28 27 26 24 23 22 21 20 20 21 20 20 19 19 19 19 19 19 19 19 19 18 18 18 18 18 18 18 18 18 18 18 18 18 18
25 28 30 31 31 33 33 33 33 33 32 32 30 29 27 26 25 24 23 22 21 20 21 21 20 20 19 19 19 19 19 18 18 18 18 18 18 18 18 18 18 18 18 18 18 18 18 18 18
27 30 31 31 32 34 34 34 33 33 32 31 29 28 26 26 25 24 23 23 22 20 21 21 20 20 19 19 19 19 19 19 18 18 18 18 18 18 18 18 18 18 18 18 18 18 18 18 18
29 32 31 31 33 34 35 34 33 32 32 31 29 28 26 25 24 24 23 23 22 21 21 21 20 20 20 19 19 19 19 19 19 18 18 18 18 18 18 18 18 18 18 18 18 18 18 18 18
30 32 32 32 33 33 34 34 33 32 32 31 30 28 26 25 24 24 24 23 22 21 21 21 20 20 20 19 19 19 19 19 19 18 18 18 18 18 18 18 18 18 18 18 18 18 18 18 18
31 32 32 33 34 34 34 34 33 32 32 31 30 28 26 25 24 24 24 23 22 21 20 20 20 20 20 19 19 19 19 19 19 18 18 18 18 18 18 18 18 18 18 18 18 18 18 18 18
31 31 32 34 34 34 35 34 33 32 31 31 30 28 26 25 24 24 24 23 22 21 20 20 19 19 19 19 19 19 19 19 19 18 18 18 18 18 18 18 18 18 18 18 18 18 18 18 18
32 31 33 35 36 35 35 34 34 33 32 31 29 27 25 24 24 24 24 23 22 21 21 20 19 19 19 19 19 19 18 19 18 18 18 18 18 18 18 18 18 18 18 18 18 18 18 18 18
33 32 34 36 36 35 35 34 34 33 31 30 28 26 25 25 24 24 24 23 22 21 21 20 20 20 19 19 19 18 18 19 18 18 18 18 18 18 18 18 18 18 18 18 18 18 18 18 18
33 34 34 35 35 35 35 34 34 33 31 30 28 27 26 25 24 24 24 23 22 22 21 21 20 20 20 19 19 19 19 19 18 18 18 18 18 18 18 18 18 18 18 18 18 18 18 18 18
33 34 34 34 34 34 34 34 34 33 32 30 28 27 26 25 25 24 23 23 22 21 21 21 20 20 20 20 19 19 19 19 19 19 18 18 18 18 18 18 18 18 18 18 18 18 18 18 18
34 34 34 34 34 34 34 34 34 33 32 30 28 27 26 26 25 24 23 23 22 21 21 20 20 20 20 20 20 19 19 19 19 19 19 18 18 18 18 18 18 18 18 18 18 18 18 18 18
33 33 33 34 34 34 34 33 34 33 32 30 29 27 27 26 25 24 24 23 22 21 21 20 20 20 20 20 20 19 19 19 19 19 19 19 18 18 18 18 18 18 18 18 18 18 18 18 18
33 32 32 34 34 34 33 32 34 33 32 31 30 28 27 26 25 25 24 23 22 21 21 20 20 20 20 19 20 19 19 19 19 19 19 19 18 18 18 18 18 18 18 18 18 18 18 18 18
31 31 32 33 35 34 33 32 33 33 33 32 31 29 28 27 26 25 23 23 22 21 21 20 20 20 20 19 20 19 19 19 19 19 19 19 19 18 19 18 18 18 18 18 18 18 18 18 18
31 32 32 33 34 34 33 32 33 33 33 32 31 30 28 27 26 25 24 23 22 21 21 20 20 20 20 19 20 19 19 19 19 19 19 19 19 19 19 18 18 18 18 18 18 18 18 18 18
32 32 33 34 35 34 33 32 32 33 33 32 31 30 28 27 26 25 23 23 21 21 20 20 20 19 20 19 19 19 19 19 19 19 19 19 19 19 19 18 18 18 18 18 18 18 18 18 18
32 32 32 34 34 34 33 32 33 33 33 32 31 30 29 28 26 25 23 22 22 21 20 20 20 20 20 20 20 19 19 19 19 19 19 19 19 19 19 19 18 18 18 18 18 18 18 18 18
31 31 32 33 33 33 32 32 32 33 33 32 31 30 30 28 26 24 23 22 22 21 20 20 20 20 20 20 19 19 19 19 19 19 19 19 19 19 18 19 18 18 18 18 18 18 18 18 18
30 32 33 33 32 31 32 30 30 31 31 31 31 31 30 29 27 25 23 22 22 21 20 20 20 20 19 19 19 19 19 19 19 19 19 19 19 19 19 18 18 18 18 18 18 18 18 18 18
31 33 32 32 31 31 32 30 29 29 28 30 31 31 30 29 27 25 24 23 22 21 20 20 20 19 19 19 19 19 19 19 19 19 19 18 18 18 18 18 18 18 18 18 18 18 18 18 18
32 32 31 31 31 29 30 30 29 28 28 29 30 31 30 29 27 26 24 23 22 21 21 20 20 20 19 19 19 19 19 19 19 19 18 18 18 18 18 18 18 18 18 18 18 18 18 18 18
31 30 28 28 28 28 31 30 29 29 29 29 29 30 30 29 27 26 24 23 22 22 21 20 20 20 19 19 19 19 19 19 19 19 19 18 18 18 18 18 18 18 18 18 18 18 18 18 18
30 30 28 27 28 29 30 29 29 30 30 30 29 29 29 28 27 26 24 23 22 22 21 20 20 20 19 19 19 19 19 18 18 19 19 18 18 18 18 18 18 18 18 18 18 18 18 18 18
30 30 31 29 29 29 29 28 29 31 30 30 29 29 29 28 27 26 25 23 23 22 21 20 20 19 19 19 19 19 19 18 18 18 18 18 18 18 18 18 18 18 18 18 18 18 18 18 18
31 30 30 29 27 27 28 27 27 29 29 30 30 29 28 27 26 25 24 24 23 22 21 20 20 20 19 19 19 19 19 18 18 18 18 18 18 18 18 18 18 18 18 18 17 17 17 17 17
30 30 30 29 28 27 27 27 28 28 29 29 29 28 27 27 26 25 24 23 22 21 21 20 20 19 19 19 19 18 18 18 18 18 18 18 18 18 18 18 18 18 18 17 17 17 17 17 17
30 30 30 28 28 28 27 26 28 28 29 29 29 28 27 26 25 24 23 22 22 21 20 20 20 19 19 19 19 18 18 18 18 18 18 18 18 18 18 18 18 17 17 17 17 17 17 17 17
Wind_Speed
10 12 11 7 5 3 4 11 13 14 14 14 14 15 19 16 12 13 15 22 23 21 19 19 18 18 17 18 18 17 17 17 17 17 17 18 18 18 18 19 19 19 19 19 19 19 19 18 18
10 13 9 5 4 1 6 11 14 14 13 13 15 17 19 18 18 17 19 22 23 21 19 18 18 18 18 17 17 17 17 17 16 16 16 17 17 17 18 18 18 19 19 18 18 18 18 17 16
12 16 7 5 3 2 9 10 12 12 11 13 15 17 14 14 17 16 20 23 22 20 20 20 19 18 18 17 17 17 16 17 16 16 16 17 17 17 18 18 18 18 18 18 17 17 16 15 14
9 9 6 5 2 5 11 10 12 11 11 11 14 13 13 13 16 19 21 22 22 21 20 20 19 18 18 17 17 17 16 16 16 16 16 16 16 16 17 17 18 18 17 17 16 16 15 14 11
10 7 7 5 3 8 9 10 10 10 10 13 18 16 14 15 20 21 19 20 21 21 20 20 19 18 17 17 16 16 16 16 16 16 16 16 16 16 16 17 17 17 16 16 15 15 14 12 10
8 8 8 5 2 8 8 8 9 9 10 14 18 17 12 16 18 18 18 18 20 21 20 19 19 18 17 16 16 15 15 15 15 15 16 16 16 16 16 16 16 16 15 15 15 14 13 11 8
11 11 12 6 3 6 8 7 7 8 8 9 15 14 12 17 17 17 16 17 19 20 19 17 18 17 16 16 15 15 15 15 14 15 15 15 15 15 15 16 16 15 15 14 14 13 11 9 6
11 11 15 7 5 8 8 6 7 10 7 6 10 11 13 19 18 17 16 16 19 18 18 17 16 16 15 15 15 15 15 14 14 14 15 15 15 15 15 15 15 14 14 13 13 12 10 8 5
12 11 12 6 3 8 8 7 8 10 8 6 10 15 20 22 21 18 15 16 16 17 16 16 16 15 15 16 15 15 14 14 14 13 14 14 13 14 13 15 14 14 13 12 12 11 10 8 5
9 11 13 4 3 6 7 6 8 8 10 10 16 21 24 22 21 18 17 17 16 16 16 14 14 14 14 14 14 13 12 13 12 12 12 10 9 12 13 15 14 13 12 11 10 10 10 8 7
12 14 13 6 3 2 3 5 5 7 8 10 17 23 24 23 20 17 16 16 15 14 14 15 12 10 11 10 11 9 10 11 11 12 11 9 10 11 13 11 11 10 11 9 10 9 8 7 5
14 14 12 8 2 3 3 3 5 5 8 12 18 22 23 22 20 18 16 15 15 13 13 14 12 8 8 9 7 7 8 8 8 10 10 9 5 6 8 7 10 9 8 7 8 6 5 4 3
15 14 12 9 6 6 6 5 4 6 11 15 20 22 22 20 19 17 16 16 15 12 12 12 11 9 6 6 5 6 6 8 9 9 8 9 5 4 5 4 6 8 8 6 3 3 4 3 3
13 13 13 11 10 8 8 8 6 7 12 16 18 18 19 20 19 18 16 16 16 14 13 13 11 10 7 6 3 3 5 7 9 9 9 9 8 6 5 4 3 5 7 6 4 5 4 2 2
14 14 15 14 13 11 10 12 10 9 12 16 18 17 19 19 18 18 17 15 16 14 13 12 11 10 8 7 5 4 5 8 6 7 10 8 9 9 6 4 3 4 7 7 4 4 4 3 3
14 15 16 16 15 13 11 13 11 12 14 16 17 18 17 17 18 17 17 15 15 14 13 13 13 12 10 7 5 3 5 6 6 8 9 8 9 10 7 4 4 6 6 5 3 2 3 2 3
16 17 17 16 16 13 12 11 8 11 12 15 16 16 17 17 17 17 18 17 15 14 14 13 11 13 11 9 6 4 3 4 6 7 8 9 9 10 6 4 4 7 5 4 5 4 3 3 3
15 17 17 16 15 14 13 11 9 11 14 14 15 16 16 17 17 17 17 17 15 14 14 12 10 12 11 8 6 4 4 4 4 6 7 10 9 9 7 4 6 6 4 3 2 5 3 2 3
19 16 14 14 12 14 13 12 12 12 12 12 14 15 16 17 18 17 17 17 16 14 14 14 12 12 10 8 8 7 6 6 5 5 9 10 10 10 6 4 6 4 4 5 5 4 4 2 2
21 18 16 10 10 10 11 12 12 11 12 12 12 14 16 17 17 18 17 16 16 15 15 14 13 13 12 9 7 7 6 6 6 4 7 10 9 10 9 5 6 5 4 5 4 4 3 3 4
19 17 16 11 8 9 11 13 12 12 10 10 11 11 14 18 19 18 17 15 15 16 16 15 13 13 13 11 8 7 5 5 5 6 6 7 9 10 8 8 6 6 6 6 6 5 5 4 3
17 17 16 13 10 9 12 12 10 10 9 10 11 12 13 16 18 18 18 17 16 16 16 13 14 13 12 11 11 11 9 8 7 6 6 8 9 9 9 8 7 6 5 6 7 7 5 4 3
16 14 14 13 12 12 14 13 9 8 9 11 12 14 13 14 17 18 17 16 16 16 16 14 14 13 13 12 11 10 9 7 6 6 7 7 7 8 9 8 7 6 6 6 7 6 6 5 5
14 13 12 12 12 16 16 14 9 9 13 12 12 12 11 11 13 14 15 14 15 15 15 15 14 13 13 13 12 11 10 8 8 8 8 7 7 7 9 9 7 7 6 6 6 6 7 5 5
16 13 10 11 13 14 14 13 7 9 10 9 8 9 10 10 11 12 14 14 13 14 14 14 15 14 13 13 12 10 9 8 9 8 8 8 7 7 9 9 7 7 6 6 6 7 7 7 6
19 19 13 11 12 12 13 11 8 11 10 10 9 9 10 10 11 12 13 13 13 13 12 13 13 12 12 12 11 9 9 8 7 8 8 8 7 7 8 9 9 8 8 8 7 7 7 7 7
20 19 19 14 12 11 10 8 8 12 11 12 11 9 9 9 10 12 13 13 12 12 12 12 12 11 10 10 10 9 10 9 8 8 8 7 6 7 8 9 9 9 9 8 8 7 7 7 7
19 19 14 14 10 11 9 10 9 11 12 11 11 10 9 10 10 11 10 10 10 10 10 11 11 10 9 9 9 9 9 8 7 7 8 8 7 7 7 7 8 8 8 8 8 7 7 8 7
19 20 16 12 11 11 8 6 7 8 10 12 12 11 10 10 10 11 10 10 10 10 10 9 9 9 9 9 8 7 8 8 7 7 7 7 7 7 8 8 8 8 9 8 8 8 8 9 8
19 19 18 14 11 10 6 4 2 8 9 10 12 11 11 10 10 11 11 10 9 9 9 9 8 8 8 8 7 6 6 6 7 7 8 7 8 8 8 8 8 9 9 9 9 9 9 8 9
Wind_Direction
250 249 243 257 255 253 55 73 75 77 72 65 63 71 68 63 82 101 119 117 116 118 120 116 113 112 111 111 110 109 110 107 105 103 101 100 99 100 102 102 101 102 102 101 101 101 100 100 100
263 260 250 248 269 37 76 80 80 79 86 82 72 74 77 73 93 113 119 118 119 122 124 118 116 114 114 113 111 110 111 110 107 104 103 102 102 102 103 103 104 105 105 103 103 103 104 104 105
265 264 264 238 229 102 93 90 91 89 91 90 83 71 70 88 103 116 122 124 122 121 119 120 119 117 116 115 114 112 112 113 112 109 107 105 105 105 105 104 104 105 106 105 105 106 106 107 107
264 253 244 262 254 104 97 104 102 100 93 90 89 80 76 90 111 122 128 126 124 122 121 123 122 120 119 118 116 116 116 116 116 114 112 110 109 109 107 107 105 105 105 105 106 107 107 108 110
251 263 253 267 269 94 91 94 97 94 94 93 94 96 91 97 116 128 131 128 127 123 124 127 126 124 123 122 120 119 118 118 118 118 116 113 112 111 110 110 109 108 108 108 109 109 109 109 110
258 254 262 255 200 105 101 102 108 105 104 109 110 105 102 116 125 136 134 132 126 125 126 128 128 128 126 125 124 123 122 122 122 121 119 117 116 114 113 113 112 112 112 111 110 111 112 112 111
262 280 274 250 177 121 112 113 116 113 103 103 116 111 124 131 138 140 135 132 125 124 128 134 135 132 130 128 127 126 126 126 127 126 125 123 120 119 117 116 115 114 114 114 114 114 115 115 114
265 286 285 262 182 127 125 125 116 115 105 117 118 122 142 143 147 140 138 128 127 130 136 139 141 140 140 135 131 129 129 132 133 134 133 131 129 127 125 121 120 118 117 117 118 119 121 126 134
261 267 273 272 155 128 130 139 125 122 131 117 87 121 141 147 148 146 143 135 135 136 140 142 143 150 148 143 139 137 137 138 140 143 143 145 143 137 138 123 126 125 125 125 126 128 134 143 161
240 260 269 328 57 119 138 149 143 145 135 116 104 118 138 151 153 155 154 149 143 141 144 144 148 156 152 144 145 151 150 152 158 148 157 165 143 137 127 130 133 135 136 137 141 146 155 169 170
241 255 282 320 25 82 152 149 158 151 147 148 136 140 150 155 157 161 160 153 147 148 149 145 153 157 147 141 158 160 150 156 160 153 159 154 141 135 132 138 141 149 157 160 155 172 188 189 177
245 260 277 290 312 258 227 175 167 145 142 149 148 150 155 161 163 166 162 154 151 156 152 147 150 147 144 148 157 153 146 157 153 154 165 151 152 139 141 149 157 163 167 166 169 180 177 167 151
241 253 263 268 267 250 250 227 192 146 135 139 145 154 162 166 166 166 163 157 154 160 154 145 146 144 141 132 157 159 149 154 147 156 166 152 150 140 133 145 158 162 151 156 169 139 123 125 121
253 252 257 251 244 234 241 235 211 181 151 142 148 159 167 168 168 166 166 159 161 167 158 147 151 143 138 137 164 142 143 140 148 157 162 166 149 134 134 143 161 152 144 150 147 135 129 130 93
258 255 253 243 233 226 230 238 219 195 163 155 159 167 173 169 170 170 167 162 165 168 158 152 155 148 149 154 177 162 150 151 151 148 152 165 149 142 151 155 171 145 135 131 129 133 137 156 145
248 246 247 238 225 214 220 239 215 191 175 167 167 170 171 168 172 170 164 163 164 166 158 162 168 158 160 165 182 177 166 154 146 146 154 169 152 154 163 159 164 145 142 144 141 164 155 145 141
236 235 239 234 212 208 214 238 206 189 186 176 172 170 169 169 174 168 166 168 167 164 160 166 165 161 165 168 173 190 165 145 146 152 159 167 163 165 176 159 148 158 157 167 174 157 150 150 162
227 230 234 233 202 201 217 225 207 203 195 186 175 171 171 172 175 168 167 168 166 163 162 167 167 163 165 168 168 188 174 160 166 163 160 163 169 174 181 161 158 174 165 162 135 128 130 149 199
246 248 245 238 204 196 216 221 211 206 199 186 180 174 175 172 171 166 166 168 168 166 166 170 174 168 167 174 177 183 182 177 182 177 159 166 175 177 186 174 159 183 171 163 160 153 163 191 207
250 257 256 237 205 198 217 227 220 211 207 188 186 179 175 170 168 167 167 170 172 170 171 173 177 175 177 178 180 184 181 182 183 181 158 172 178 178 187 192 173 182 172 171 173 170 174 201 200
240 245 250 240 212 210 224 231 226 212 209 192 191 190 181 173 168 165 172 176 178 178 178 182 182 179 182 177 179 187 176 183 184 177 170 182 185 187 191 187 190 180 184 178 185 184 192 205 208
235 241 249 248 231 227 225 236 223 206 212 207 196 193 189 173 167 170 177 177 185 184 183 180 179 180 182 181 186 188 186 191 193 184 180 185 191 192 194 191 191 190 198 177 190 191 196 200 217
236 238 245 248 245 246 233 237 224 187 211 221 201 195 189 173 170 172 177 178 186 186 181 179 177 181 183 188 192 193 194 192 187 185 183 187 193 197 198 192 189 198 206 195 198 177 193 198 216
232 238 237 242 250 242 239 242 225 198 201 212 202 192 174 167 165 167 172 171 179 180 177 177 176 181 185 189 195 200 196 190 190 189 187 191 194 201 202 196 194 199 206 203 197 185 193 211 222
220 220 213 219 229 240 236 236 218 176 178 190 195 182 168 163 162 162 163 165 170 174 174 174 175 181 185 189 195 198 198 197 201 199 196 199 198 198 199 203 197 202 203 205 200 198 203 205 213
214 217 217 216 224 236 231 230 203 173 171 164 164 170 161 161 158 157 156 159 167 170 169 171 172 178 184 189 193 194 197 205 207 209 206 204 207 202 194 198 198 201 202 209 202 206 209 205 206
213 219 228 238 253 244 219 208 185 167 166 158 156 156 153 153 151 152 154 159 164 165 166 169 168 175 183 190 190 196 201 208 210 206 211 213 210 202 196 199 200 201 204 207 198 211 213 202 204
224 219 227 236 251 258 235 205 200 175 172 164 155 151 148 153 148 142 146 146 149 151 156 158 163 171 179 186 192 198 201 205 207 210 215 212 209 209 199 204 204 201 203 206 205 210 214 208 209
216 220 227 232 236 244 244 228 201 184 176 166 158 153 150 146 140 139 136 133 138 146 150 153 162 171 177 185 194 200 196 202 208 212 216 216 215 207 203 210 208 203 205 208 207 214 213 213 212
218 222 222 232 237 245 243 256 181 165 166 159 154 150 142 139 139 136 134 134 138 145 150 153 161 171 177 181 189 195 198 202 206 212 213 211 212 208 205 205 208 209 207 206 208 215 214 214 216
Height
1468 1468 1468 1471 1469 1468 1464 1452 1448 1452 1454 1456 1458 1461 1467 1472 1480 1494 1497 1498 1500 1502 1505 1507 1509 1511 1513 1515 1517 1518 1520 1521 1523 1525 1526 1528 1529 1530 1532 1533 1535 1536 1538 1539 1540 1542 1543 1544 1546
1468 1469 1472 1470 1469 1476 1467 1452 1452 1454 1456 1459 1462 1465 1471 1478 1484 1491 1496 1500 1501 1504 1506 1509 1511 1513 1515 1517 1519 1521 1522 1524 1526 1528 1529 1531 1532 1533 1535 1536 1538 1539 1540 1542 1543 1545 1546 1547 1548
1468 1470 1471 1463 1466 1468 1463 1452 1452 1454 1457 1460 1465 1470 1476 1483 1488 1493 1498 1501 1503 1506 1508 1510 1513 1515 1517 1519 1521 1523 1525 1527 1529 1530 1532 1533 1535 1536 1538 1539 1540 1542 1543 1544 1546 1547 1548 1550 1551
1471 1470 1467 1460 1461 1450 1449 1449 1451 1455 1459 1462 1466 1475 1483 1487 1491 1495 1500 1503 1505 1508 1510 1512 1515 1517 1519 1521 1524 1526 1528 1529 1531 1533 1534 1536 1537 1539 1541 1542 1543 1544 1546 1547 1549 1550 1551 1552 1554
1473 1468 1463 1462 1454 1444 1444 1448 1453 1456 1460 1464 1470 1479 1486 1491 1493 1497 1501 1505 1507 1509 1511 1514 1517 1519 1521 1524 1526 1528 1530 1532 1533 1535 1537 1538 1540 1542 1543 1544 1546 1547 1548 1550 1551 1552 1554 1555 1557
1471 1463 1466 1466 1452 1444 1445 1450 1454 1459 1462 1466 1472 1480 1489 1494 1496 1500 1503 1506 1509 1511 1513 1516 1518 1521 1523 1526 1528 1530 1532 1534 1536 1537 1539 1541 1542 1544 1545 1547 1548 1550 1551 1552 1554 1555 1556 1558 1559
1470 1461 1459 1455 1451 1448 1447 1451 1455 1460 1462 1466 1471 1480 1490 1495 1498 1501 1505 1508 1511 1512 1514 1517 1520 1522 1525 1527 1530 1532 1533 1535 1537 1539 1541 1543 1544 1546 1548 1549 1551 1552 1553 1555 1556 1557 1559 1560 1562
1467 1462 1456 1448 1448 1448 1447 1451 1455 1460 1465 1468 1471 1479 1489 1494 1499 1502 1506 1509 1512 1514 1516 1519 1521 1524 1526 1529 1531 1533 1535 1537 1539 1541 1543 1545 1546 1548 1550 1551 1553 1554 1555 1557 1558 1560 1561 1562 1564
1466 1465 1460 1446 1443 1446 1447 1451 1456 1460 1465 1468 1471 1476 1485 1492 1498 1502 1506 1510 1513 1516 1518 1521 1523 1526 1528 1530 1533 1535 1537 1539 1541 1543 1545 1546 1548 1550 1551 1553 1555 1556 1558 1559 1561 1562 1563 1565 1566
1462 1463 1451 1439 1437 1441 1446 1450 1455 1459 1465 1470 1475 1481 1486 1492 1497 1501 1505 1509 1513 1516 1520 1522 1525 1528 1531 1533 1534 1536 1539 1540 1543 1545 1546 1548 1550 1552 1554 1555 1556 1558 1560 1561 1563 1564 1566 1567 1569
1457 1457 1446 1441 1441 1444 1446 1450 1454 1457 1465 1469 1475 1481 1487 1492 1497 1501 1505 1509 1513 1517 1520 1523 1526 1529 1532 1534 1536 1538 1540 1542 1544 1546 1548 1550 1552 1554 1555 1556 1558 1560 1561 1563 1565 1566 1567 1569 1570
1455 1451 1447 1444 1444 1447 1448 1450 1454 1457 1462 1469 1474 1479 1485 1490 1495 1499 1504 1508 1512 1517 1520 1523 1526 1529 1532 1535 1537 1540 1542 1543 1545 1547 1549 1551 1553 1555 1556 1557 1559 1561 1563 1565 1566 1567 1569 1570 1572
1451 1450 1448 1447 1448 1449 1450 1451 1454 1457 1462 1468 1474 1480 1484 1489 1494 1499 1503 1507 1511 1516 1519 1522 1525 1529 1532 1535 1538 1541 1543 1544 1546 1547 1550 1552 1554 1555 1557 1559 1560 1562 1564 1566 1567 1569 1570 1571 1573
1449 1448 1447 1447 1448 1449 1451 1451 1453 1456 1461 1467 1474 1479 1483 1488 1493 1497 1501 1505 1509 1514 1518 1521 1524 1527 1531 1534 1537 1540 1543 1544 1546 1548 1550 1552 1554 1556 1557 1559 1561 1563 1565 1566 1568 1569 1570 1572 1573
1449 1448 1447 1445 1445 1447 1450 1453 1451 1454 1459 1465 1472 1477 1482 1487 1491 1495 1499 1503 1507 1512 1516 1519 1522 1526 1529 1533 1536 1539 1542 1544 1546 1547 1549 1552 1554 1555 1557 1560 1562 1563 1565 1566 1568 1569 1571 1572 1574
1448 1450 1453 1443 1441 1444 1452 1459 1448 1451 1456 1462 1468 1474 1480 1485 1489 1493 1497 1501 1505 1509 1513 1517 1521 1524 1527 1531 1535 1539 1541 1543 1545 1547 1548 1551 1553 1555 1557 1559 1561 1563 1565 1566 1568 1569 1571 1572 1573
1451 1455 1451 1441 1435 1439 1447 1452 1445 1449 1452 1458 1464 1470 1476 1482 1487 1491 1495 1499 1503 1507 1510 1514 1519 1522 1525 1530 1533 1537 1540 1542 1544 1546 1547 1549 1552 1554 1556 1559 1560 1562 1564 1566 1568 1569 1571 1572 1573
1452 1447 1444 1439 1431 1437 1444 1446 1444 1446 1449 1454 1459 1466 1472 1478 1483 1487 1492 1497 1501 1505 1508 1512 1516 1519 1523 1527 1531 1535 1538 1540 1543 1545 1546 1548 1550 1553 1555 1557 1559 1561 1564 1565 1567 1568 1570 1571 1573
1438 1438 1439 1432 1425 1434 1442 1445 1443 1443 1446 1451 1456 1461 1467 1474 1480 1485 1490 1494 1498 1502 1506 1509 1513 1516 1520 1524 1527 1531 1534 1537 1540 1543 1545 1546 1549 1551 1554 1556 1558 1560 1562 1564 1566 1567 1569 1570 1572
1438 1440 1437 1429 1425 1432 1440 1443 1439 1441 1443 1447 1452 1457 1463 1470 1476 1482 1487 1491 1495 1498 1502 1506 1510 1513 1516 1520 1525 1529 1532 1535 1538 1540 1542 1544 1547 1549 1552 1554 1555 1558 1560 1562 1564 1565 1567 1569 1570
1438 1439 1436 1433 1429 1430 1440 1446 1441 1439 1441 1445 1450 1455 1459 1465 1472 1478 1483 1488 1492 1495 1498 1502 1506 1510 1514 1518 1522 1527 1530 1533 1536 1538 1539 1542 1544 1546 1549 1551 1553 1555 1557 1559 1561 1563 1565 1567 1569
1441 1431 1430 1431 1438 1443 1442 1459 1447 1441 1443 1445 1448 1452 1456 1461 1469 1474 1479 1484 1488 1491 1495 1499 1503 1507 1511 1515 1519 1522 1525 1528 1531 1534 1537 1539 1541 1543 1546 1548 1550 1553 1555 1557 1558 1560 1563 1565 1566
1433 1427 1429 1431 1437 1443 1440 1452 1451 1443 1449 1447 1447 1450 1454 1459 1465 1470 1476 1480 1484 1489 1492 1496 1500 1504 1508 1512 1516 1520 1523 1526 1529 1531 1534 1536 1538 1540 1542 1544 1547 1549 1552 1554 1556 1558 1560 1561 1563
1428 1430 1433 1435 1441 1457 1445 1450 1455 1445 1447 1447 1445 1448 1452 1457 1462 1467 1472 1477 1482 1486 1490 1493 1497 1501 1505 1509 1513 1516 1519 1522 1525 1527 1530 1532 1534 1536 1539 1541 1543 1545 1548 1550 1552 1554 1556 1558 1560
1430 1441 1458 1463 1463 1457 1437 1444 1447 1436 1437 1441 1443 1447 1451 1456 1460 1465 1470 1475 1479 1484 1487 1491 1494 1498 1502 1506 1509 1513 1516 1519 1521 1523 1526 1528 1530 1532 1534 1537 1539 1542 1544 1547 1549 1551 1553 1555 1556
1431 1437 1455 1468 1465 1453 1439 1445 1439 1430 1433 1436 1441 1446 1449 1454 1459 1464 1468 1473 1478 1482 1486 1489 1492 1496 1500 1503 1506 1510 1512 1515 1517 1520 1522 1524 1526 1528 1530 1533 1535 1538 1540 1542 1545 1547 1549 1551 1552
1430 1432 1429 1442 1445 1450 1443 1442 1435 1428 1432 1435 1440 1444 1448 1453 1458 1463 1468 1472 1477 1480 1484 1487 1491 1494 1497 1501 1504 1507 1509 1512 1514 1516 1518 1520 1523 1525 1527 1529 1531 1533 1536 1538 1540 1542 1544 1546 1548
1420 1425 1432 1442 1459 1463 1451 1448 1446 1435 1434 1434 1438 1444 1449 1454 1458 1462 1467 1472 1476 1480 1483 1486 1489 1492 1495 1498 1501 1504 1506 1508 1510 1512 1514 1516 1518 1521 1523 1525 1527 1529 1532 1534 1536 1538 1540 1542 1544
1423 1425 1427 1433 1440 1456 1462 1455 1429 1432 1431 1434 1439 1444 1449 1453 1458 1462 1467 1471 1475 1479 1482 1485 1488 1491 1493 1496 1499 1501 1503 1505 1506 1508 1510 1512 1514 1516 1518 1520 1523 1525 1527 1529 1531 1533 1536 1538 1539
1415 1419 1425 1439 1441 1437 1450 1455 1427 1428 1430 1434 1439 1444 1449 1453 1458 1463 1467 1471 1475 1478 1481 1484 1486 1489 1491 1494 1496 1499 1500 1501 1503 1504 1505 1507 1510 1511 1513 1516 1518 1520 1522 1525 1527 1529 1531 1533 1535